Location: The Saddle
(36.8333°N, 80.3417°W)
Time: 19:39:24
(UTC-05:00)

A-11 Canister half - Pass Details

Date: 11 December 2023
Orbit: 1512 x 1687 km, 47.2° (Epoch: 26 February)

Event Time Altitude Azimuth Distance (km) Brightness Sun altitude
Rises 04:42:53 0° 302° (WNW) 4,830 - -31.4°
Reaches altitude 10° 04:45:57 10° 303° (WNW) 3,865 - -30.8°
Exits shadow 04:52:46 51° 304° (NW) 2,005 9.1 -29.4°
Maximum altitude 04:55:57 90° 26° (NNE) 1,670 9.0 -28.8°
Drops below altitude 10° 05:06:09 10° 125° (SE) 3,944 11.9 -26.8°
Sets 05:09:19 0° 126° (SE) 4,932 12.7 -26.2°
